Wind_Speed
77 77 78 79 75 71 63 58 56 58 63 62 62 59 54 51 44 44 47 47 44 42 39 34 31 28 26 28 29 31 32 34 32 30 28 29 26 26 31 33 36 38 44 49 52 56 56 61 64 63 63 67 70 69
79 78 79 77 73 69 61 57 56 59 64 63 62 57 56 53 46 46 47 46 45 43 40 37 35 31 32 29 31 32 35 35 33 34 31 29 32 34 34 36 41 46 54 56 59 62 64 64 64 67 69 72 72 71
77 77 77 74 70 67 60 58 56 60 66 62 62 56 58 54 50 47 48 49 46 43 40 39 36 35 36 32 30 31 35 36 35 34 36 38 38 39 41 43 50 55 59 63 65 65 66 67 71 75 74 73 73 73
77 78 77 73 69 65 59 56 57 58 60 67 66 61 61 55 54 50 47 47 48 49 47 45 42 39 40 40 36 31 33 35 36 37 39 40 42 44 48 54 59 65 66 66 65 69 69 74 78 77 75 75 75 75
82 81 78 74 69 65 60 56 57 57 56 60 60 62 62 64 58 55 52 50 50 49 51 52 47 46 45 44 44 45 41 42 45 45 45 47 52 54 56 58 63 70 71 70 70 74 76 78 79 76 74 75 76 77
81 81 78 75 69 66 63 58 57 58 56 55 58 56 56 59 65 61 56 56 54 54 52 51 52 52 50 50 50 54 56 55 54 52 55 58 61 62 59 60 69 73 72 74 76 79 83 84 79 77 77 77 80 82
78 80 78 75 71 68 64 59 57 57 58 55 55 55 56 57 58 59 63 63 60 59 56 53 53 54 54 57 59 58 58 60 60 63 63 65 67 66 63 64 73 73 76 79 80 84 83 79 77 79 80 82 84 86
80 79 78 77 73 69 63 59 58 54 51 49 51 53 53 54 55 59 58 62 65 64 62 58 59 61 60 61 63 65 65 63 62 61 63 68 69 68 65 71 74 77 79 79 84 84 80 79 81 83 84 87 90 93
80 81 78 75 73 70 66 60 59 58 56 54 50 45 50 56 56 54 56 57 60 59 60 59 59 62 65 69 70 71 71 70 68 67 67 65 63 64 73 75 77 79 81 86 85 82 82 84 85 87 90 94 96 100
81 83 82 80 75 72 69 65 62 60 56 54 51 47 44 46 55 58 56 55 54 54 53 57 62 63 68 72 75 76 75 73 70 71 72 70 68 73 79 79 82 86 87 81 81 83 85 87 90 92 95 98 102 106
77 81 80 77 75 72 70 68 64 59 55 53 52 52 51 51 51 51 53 53 55 53 53 55 58 62 67 70 72 72 70 70 70 72 75 71 70 77 84 86 83 79 81 84 86 88 90 94 97 100 104 106 109 113
76 79 77 77 77 74 72 69 66 62 60 59 56 55 54 54 54 53 51 52 54 56 56 62 67 69 69 71 72 72 74 74 73 74 76 76 78 79 80 80 82 84 85 88 91 95 99 102 106 109 112 116 117 119
68 70 74 74 76 78 75 74 71 68 67 66 64 63 61 58 56 52 50 50 54 58 62 67 70 72 71 73 75 76 78 78 80 78 76 76 78 79 80 83 86 89 92 95 99 102 106 109 112 116 119 120 123 123
67 63 65 73 73 74 77 79 76 75 73 72 71 70 70 66 60 56 56 57 58 60 62 65 68 69 70 72 74 75 77 78 78 79 79 82 85 87 90 92 94 97 101 104 108 111 113 117 122 124 125 125 126 126
68 66 64 66 71 77 76 77 78 79 79 78 74 75 74 72 70 68 67 67 67 67 68 68 70 73 74 77 79 82 85 87 88 88 90 92 94 96 98 101 104 107 110 114 117 120 122 123 125 126 126 124 121 116
61 63 65 67 67 67 74 80 81 82 83 83 84 84 83 83 81 80 78 78 78 79 80 81 82 83 85 87 89 92 95 96 97 98 100 103 105 108 110 112 115 118 119 121 123 123 124 124 124 122 117 114 111 110
62 63 62 62 65 67 70 75 78 82 85 85 86 88 90 90 91 90 89 87 88 88 89 90 91 93 95 97 98 100 103 106 108 109 111 113 116 117 119 122 124 125 126 125 123 122 120 116 115 115 111 110 104 102
70 68 64 64 65 64 65 67 69 72 76 80 83 85 87 90 92 95 97 100 100 99 100 100 101 103 105 106 107 107 109 111 113 116 118 120 122 125 126 126 123 120 120 119 115 115 118 117 113 106 100 100 98 96
73 72 72 73 71 68 66 68 70 72 75 78 81 85 88 89 91 94 96 98 99 101 104 106 107 108 108 108 110 112 112 112 112 112 113 115 116 116 116 114 113 114 115 115 112 109 106 104 103 99 96 94 92 90
74 74 75 75 74 73 73 73 72 72 74 76 79 82 82 84 85 87 90 92 93 94 96 97 99 101 102 104 105 104 104 106 107 109 110 111 112 112 113 113 113 113 111 108 106 103 101 98 98 93 88 88 85 83
77 77 78 79 79 76 76 77 77 77 78 79 80 82 83 84 85 84 85 86 87 87 89 92 95 100 101 103 103 104 107 109 110 111 113 114 114 115 116 114 110 107 105 103 100 100 99 96 92 90 86 84 80 78
77 77 77 78 79 78 78 80 81 82 82 82 83 84 85 85 86 85 86 86 87 89 92 95 96 98 99 101 104 106 106 106 106 104 103 103 103 102 100 98 98 98 97 97 94 90 89 88 86 82 79 77 76 74
71 73 75 76 77 76 78 79 80 79 80 80 81 81 81 82 82 83 84 86 87 89 90 91 90 90 92 93 94 94 94 95 95 95 94 93 92 93 94 94 92 90 89 87 86 84 82 80 78 77 75 74 72 71
61 63 65 65 68 69 72 73 75 77 77 79 79 79 79 79 81 81 82 84 86 85 84 85 86 87 88 90 90 90 90 91 89 87 87 87 86 86 86 84 83 80 78 77 77 76 75 74 73 72 71 70 68 67
53 55 56 57 58 60 63 65 67 68 70 70 72 73 74 75 75 75 78 82 80 79 80 82 82 81 82 82 83 83 83 81 80 79 77 78 78 77 78 77 76 74 72 73 72 71 71 69 68 67 67 65 65 63
53 53 54 56 56 56 57 59 60 61 62 63 63 63 64 65 66 69 71 69 69 70 70 71 71 71 71 72 73 72 70 69 68 68 68 70 70 70 70 71 72 73 71 68 66 66 67 67 66 64 63 62 60 60
45 45 45 46 48 50 51 52 53 54 56 57 57 57 58 59 60 61 61 62 63 62 60 60 61 61 59 59 60 61 63 63 64 64 64 66 66 65 65 65 64 65 65 65 63 61 61 62 60 58 57 56 56 58
36 37 42 44 45 44 45 44 45 46 47 48 48 49 50 52 53 54 54 54 54 54 53 52 52 52 53 55 58 59 60 61 61 60 60 60 59 60 60 59 58 58 58 58 59 59 59 59 59 59 59 58 58 58
36 36 36 36 37 37 38 38 38 38 40 41 42 43 45 45 45 44 45 45 46 47 48 50 50 51 53 54 55 56 56 55 55 56 55 54 54 52 52 53 54 54 53 54 53 52 53 54 54 54 55 56 54 53
29 30 31 32 33 34 35 36 36 35 36 36 37 38 39 39 40 41 43 43 43 43 44 46 47 48 49 49 49 49 51 51 51 52 52 52 52 52 52 51 51 51 50 50 51 52 50 49 48 46 45 46 48 48
25 26 26 27 28 29 30 30 31 32 34 35 37 38 38 38 38 39 39 38 39 41 43 44 44 45 45 45 45 44 45 47 48 49 49 50 50 51 51 51 51 50 50 50 50 50 48 47 46 45 43 41 39 39
25 26 27 28 29 30 31 31 32 32 32 33 35 35 36 36 35 35 35 35 37 38 39 40 41 41 42 42 42 43 43 44 44 45 45 46 47 47 47 48 48 47 46 43 43 44 44 43 42 41 40 39 37 37
24 24 24 24 25 26 27 28 29 30 31 33 33 32 31 31 32 33 35 36 37 37 37 38 39 40 40 40 41 41 42 42 43 43 44 44 44 44 43 42 42 42 42 43 43 42 40 40 40 39 38 37 36 35
Wind_Direction
173 173 176 177 180 183 186 188 186 189 187 189 192 191 197 199 198 206 203 202 206 210 213 214 220 224 232 240 239 237 240 243 247 253 262 261 260 264 273 277 283 288 290 291 292 296 301 302 304 306 309 312 311 313
175 176 178 179 182 184 186 189 186 187 188 191 191 193 198 200 199 204 204 205 211 213 216 217 222 234 234 244 245 243 245 248 253 257 255 260 265 271 277 279 287 290 291 294 295 298 300 301 304 306 307 308 311 310
177 176 178 181 184 186 186 190 186 189 192 193 194 196 198 200 202 208 209 212 215 219 222 223 227 235 243 248 249 245 247 251 254 253 257 264 268 274 279 284 288 287 287 292 295 297 297 302 304 307 306 306 306 305
176 178 180 183 186 188 189 192 192 192 194 199 201 203 205 204 206 206 210 214 219 222 228 232 235 237 243 250 251 249 248 250 255 261 265 266 270 277 284 283 285 286 291 293 296 296 297 301 304 304 303 304 304 305
179 181 183 186 188 190 192 194 197 196 199 203 205 208 209 209 211 213 214 215 218 222 227 231 235 239 242 248 255 258 256 260 261 265 269 276 276 275 280 285 287 288 293 295 295 297 302 303 301 300 299 300 303 305
186 184 186 188 191 194 196 196 199 202 202 204 208 210 211 214 215 218 220 221 223 223 227 231 236 240 244 249 253 256 256 259 263 267 270 271 272 275 279 285 286 288 293 294 296 299 301 301 299 298 298 302 303 305
189 189 189 192 194 196 198 199 200 205 206 207 209 212 217 220 220 222 225 228 229 230 230 234 239 241 243 246 249 250 254 257 260 262 265 268 273 279 281 284 283 288 291 293 294 298 299 299 298 298 300 302 304 305
191 192 193 195 196 199 199 202 200 204 212 215 215 214 219 222 224 226 227 230 232 236 238 239 242 245 247 250 251 253 255 258 263 266 269 272 277 280 281 280 285 286 288 290 294 296 296 297 297 299 300 302 304 306
193 195 197 199 201 201 202 203 206 206 207 215 224 229 227 220 224 229 231 233 235 238 241 243 246 249 252 252 254 257 258 260 262 267 271 275 278 280 279 281 285 288 290 292 294 294 295 295 297 299 301 303 304 305
199 199 201 202 203 205 205 206 208 209 209 211 216 223 229 235 233 229 227 230 236 238 239 242 248 251 254 254 255 256 259 263 264 267 271 275 278 280 283 286 287 289 291 291 292 291 292 294 297 298 300 301 302 303
203 205 207 208 208 210 211 211 213 215 219 222 223 224 227 229 232 236 239 241 239 237 239 245 249 250 250 253 256 261 264 267 270 272 275 277 279 279 281 283 286 287 288 289 290 291 292 294 296 297 299 302 303 304
208 208 210 212 212 214 216 218 219 221 223 226 228 231 233 235 236 238 241 242 243 245 246 247 248 250 253 258 262 266 269 271 272 273 276 278 278 279 281 282 284 285 286 288 290 292 294 295 297 298 300 301 302 303
218 216 216 216 217 217 218 221 223 223 226 228 231 233 235 237 238 240 242 246 246 245 248 251 253 257 260 262 264 266 268 270 271 273 274 275 276 278 279 280 282 283 285 287 288 290 292 294 295 298 299 300 300 303
224 225 222 221 222 224 225 224 225 228 231 233 234 237 239 240 241 240 240 243 245 246 247 251 255 257 260 262 264 266 268 269 270 272 274 275 276 278 279 280 281 283 285 287 289 291 291 293 295 297 299 301 302 303
228 230 229 227 225 224 226 230 232 232 234 236 239 241 242 243 242 243 243 243 246 248 252 253 256 259 260 262 264 266 268 270 272 274 274 275 276 278 280 281 284 285 287 288 290 292 293 294 296 299 300 301 303 305
229 230 230 230 233 230 229 231 234 236 238 241 241 244 245 245 246 246 247 247 248 251 253 254 256 259 261 263 265 268 270 272 274 274 275 276 278 280 282 284 285 287 290 292 292 292 294 296 297 299 301 303 305 306
232 234 238 237 237 237 236 234 235 238 239 241 244 247 247 247 248 249 250 251 252 253 255 256 259 260 263 265 267 268 271 273 275 277 279 281 282 283 284 284 286 288 288 289 291 294 295 297 300 303 305 304 306 307
236 239 239 239 241 240 239 237 238 239 239 240 243 245 247 249 251 253 254 253 252 252 254 256 259 261 263 265 267 269 271 273 275 276 277 279 280 281 283 285 286 288 290 292 294 296 299 300 302 303 304 305 307 307
236 238 241 243 245 244 240 240 241 242 242 242 241 242 244 246 248 250 253 255 257 259 260 260 262 263 264 266 266 267 270 273 275 276 277 277 279 281 283 286 288 290 292 294 296 297 300 302 303 304 305 305 306 307
238 239 240 241 242 244 247 248 248 247 247 246 246 247 248 249 250 251 254 255 257 258 261 262 264 266 267 268 269 271 272 273 274 276 278 279 282 284 286 287 289 292 296 299 300 301 302 302 302 303 305 306 307 306
237 238 240 242 246 247 247 249 251 252 253 254 254 254 254 255 256 256 256 257 260 261 262 263 266 267 268 271 272 272 273 275 276 278 279 281 283 285 287 289 292 294 296 298 299 300 301 301 302 303 305 305 305 307
238 240 242 245 246 248 250 251 253 254 256 257 258 259 261 262 263 265 266 267 268 268 268 268 269 270 270 271 271 272 275 276 278 281 283 284 286 288 291 292 293 296 297 297 297 298 299 301 302 303 304 305 306 306
240 242 244 246 248 251 252 255 256 258 259 260 262 263 264 265 266 267 268 268 268 269 269 270 271 271 272 273 275 277 279 280 282 284 286 288 290 291 293 294 294 294 294 295 297 299 300 300 301 303 304 304 304 305
245 246 248 249 251 252 254 256 257 258 259 260 261 262 263 263 264 265 265 266 267 268 270 271 272 273 275 277 279 281 282 283 285 288 289 290 292 293 292 290 291 292 295 297 298 299 300 300 302 302 302 303 304 304
242 244 247 249 250 250 250 252 254 255 256 258 259 260 261 262 263 264 265 266 268 271 272 274 275 277 279 280 281 282 283 285 287 289 290 289 287 287 289 292 294 295 297 297 298 299 301 301 301 301 302 302 303 304
244 246 246 248 250 251 252 253 254 257 259 260 261 262 264 265 266 266 267 271 273 273 275 276 278 278 279 280 281 283 286 286 285 284 285 287 289 291 292 294 296 297 298 298 299 299 300 300 301 302 303 304 304 303
248 251 252 252 252 252 252 254 255 257 259 261 263 265 265 267 268 268 271 272 273 274 277 278 279 281 283 284 284 283 282 283 285 287 288 289 290 292 292 293 293 295 297 298 298 299 299 299 300 301 302 302 302 302
248 248 247 247 249 252 256 257 258 259 261 263 264 265 267 269 270 271 273 275 278 279 280 281 282 282 281 280 282 283 284 285 286 288 290 291 292 292 293 294 295 296 297 298 301 303 303 303 304 305 305 305 305 305
245 247 251 253 256 257 259 262 263 264 265 265 266 267 267 270 273 276 276 277 278 278 279 279 281 282 282 282 282 284 287 289 290 290 290 291 291 291 292 294 296 297 298 299 299 298 298 298 300 301 302 303 304 306
253 253 254 255 256 258 258 260 263 266 268 270 272 272 272 273 274 274 274 276 279 281 281 280 280 280 282 284 286 288 289 290 292 293 295 296 298 299 300 301 301 301 301 300 301 302 302 303 304 304 303 302 303 303
255 257 259 260 261 263 266 267 267 267 267 267 268 270 273 275 276 277 277 279 280 281 281 281 282 284 286 287 289 289 290 292 294 295 297 298 299 300 301 302 302 304 305 305 305 304 306 306 306 306 306 305 303 304
253 254 255 257 259 260 262 265 268 271 273 273 272 272 273 276 279 281 283 283 281 281 283 286 288 289 289 290 291 293 294 295 295 296 296 297 298 299 301 302 302 303 303 304 305 307 308 308 309 309 309 309 309 310
262 265 267 268 270 270 269 268 269 271 273 275 277 280 282 283 284 284 282 283 286 288 290 290 291 292 294 295 295 296 296 296 297 298 298 299 300 301 303 304 306 307 309 310 310 311 311 312 312 313 314 314 314 314
Height
10302 10316 10331 10346 10361 10375 10389 10401 10411 10422 10435 10448 10459 10471 10482 10493 10501 10507 10516 10523 10531 10539 10545 10552 10557 10560 10562 10565 10569 10572 10575 10576 10578 10581 10582 10582 10584 10585 10583 10582 10579 10578 10574 10569 10566 10562 10562 10554 10548 10543 10537 10528 10520 10514
10302 10316 10332 10347 10361 10375 10387 10399 10409 10421 10434 10446 10457 10468 10479 10488 10495 10502 10511 10518 10526 10533 10539 10545 10550 10554 10556 10558 10561 10564 10566 10568 10571 10571 10573 10574 10574 10573 10573 10573 10568 10566 10560 10557 10553 10549 10545 10541 10536 10530 10524 10515 10508 10500
10306 10320 10335 10349 10363 10375 10386 10398 10408 10419 10431 10442 10454 10464 10474 10482 10490 10498 10506 10514 10521 10527 10532 10538 10543 10547 10550 10551 10554 10556 10558 10559 10561 10562 10563 10563 10563 10562 10562 10561 10558 10553 10547 10545 10542 10536 10529 10526 10520 10515 10507 10500 10494 10487
10308 10322 10335 10348 10361 10374 10385 10395 10405 10416 10428 10440 10450 10459 10467 10476 10485 10492 10499 10506 10513 10520 10525 10530 10534 10539 10541 10544 10546 10549 10550 10551 10551 10551 10552 10551 10552 10552 10550 10548 10544 10533 10532 10529 10529 10521 10519 10513 10507 10499 10491 10484 10477 10470
10307 10319 10333 10346 10359 10371 10382 10393 10403 10413 10424 10434 10444 10452 10460 10470 10478 10485 10492 10498 10504 10510 10517 10521 10526 10530 10533 10536 10536 10538 10539 10539 10539 10540 10541 10541 10539 10538 10539 10538 10527 10516 10515 10513 10510 10503 10502 10496 10489 10481 10474 10467 10460 10452
10309 10320 10332 10344 10356 10368 10378 10389 10399 10409 10418 10428 10438 10446 10454 10462 10470 10478 10484 10490 10495 10501 10506 10510 10515 10519 10524 10525 10525 10525 10525 10527 10529 10529 10528 10527 10522 10524 10530 10527 10506 10503 10502 10495 10492 10486 10482 10476 10468 10461 10454 10450 10442 10433
10310 10321 10331 10342 10353 10363 10374 10385 10395 10404 10413 10421 10430 10439 10448 10455 10463 10470 10475 10479 10485 10492 10497 10502 10506 10509 10511 10510 10509 10510 10511 10512 10514 10515 10515 10513 10510 10512 10515 10508 10492 10494 10487 10480 10476 10472 10466 10458 10451 10443 10437 10431 10423 10416
10308 10319 10328 10338 10349 10361 10373 10383 10391 10400 10409 10417 10424 10430 10438 10446 10453 10460 10464 10469 10475 10482 10487 10494 10496 10494 10496 10496 10496 10495 10495 10497 10500 10502 10501 10497 10499 10499 10500 10484 10481 10477 10471 10467 10463 10455 10449 10443 10435 10427 10420 10411 10404 10395
10303 10314 10325 10337 10347 10357 10368 10378 10387 10394 10402 10410 10418 10424 10431 10436 10442 10448 10453 10459 10465 10473 10479 10484 10482 10480 10481 10479 10479 10478 10478 10480 10488 10488 10486 10486 10487 10482 10470 10469 10465 10461 10457 10452 10446 10438 10432 10424 10417 10411 10401 10392 10383 10373
10302 10312 10320 10331 10342 10353 10363 10372 10380 10389 10396 10402 10410 10418 10423 10426 10431 10436 10440 10449 10456 10462 10468 10469 10466 10466 10462 10460 10458 10459 10462 10466 10473 10473 10468 10473 10476 10462 10452 10450 10445 10442 10438 10432 10427 10419 10413 10406 10399 10391 10383 10374 10364 10353
10299 10308 10320 10332 10342 10351 10359 10367 10376 10384 10391 10397 10402 10406 10410 10413 10419 10426 10433 10441 10445 10451 10454 10455 10451 10447 10443 10443 10440 10444 10451 10451 10456 10456 10450 10457 10459 10443 10436 10433 10431 10426 10418 10411 10406 10398 10392 10385 10377 10368 10359 10349 10339 10328
10293 10304 10315 10325 10335 10345 10353 10362 10370 10376 10381 10386 10391 10395 10400 10405 10410 10417 10427 10432 10435 10439 10442 10436 10430 10428 10431 10430 10431 10435 10432 10432 10436 10437 10435 10438 10433 10425 10421 10416 10412 10405 10398 10392 10385 10377 10369 10362 10353 10344 10336 10327 10317 10306
10290 10301 10311 10319 10327 10336 10344 10352 10359 10364 10370 10375 10379 10383 10388 10393 10401 10412 10418 10421 10420 10421 10421 10417 10416 10416 10419 10417 10416 10415 10414 10416 10414 10417 10418 10416 10411 10407 10403 10396 10391 10386 10380 10373 10366 10359 10351 10343 10334 10324 10314 10305 10295 10282
10282 10291 10302 10312 10320 10328 10334 10342 10348 10354 10359 10362 10366 10370 10374 10383 10394 10401 10403 10403 10403 10405 10406 10404 10402 10403 10402 10400 10398 10397 10394 10395 10395 10396 10397 10391 10387 10384 10379 10375 10370 10364 10358 10351 10343 10335 10327 10319 10310 10300 10289 10279 10270 10256
10275 10282 10289 10298 10307 10316 10323 10329 10335 10342 10345 10348 10353 10356 10364 10371 10378 10381 10386 10387 10388 10389 10390 10390 10389 10386 10385 10381 10380 10376 10373 10371 10372 10374 10372 10369 10364 10360 10356 10351 10346 10340 10334 10327 10320 10311 10301 10292 10282 10271 10260 10251 10243 10232
10263 10271 10277 10285 10292 10301 10309 10315 10320 10325 10329 10332 10336 10341 10347 10352 10356 10361 10365 10369 10371 10371 10370 10370 10369 10368 10366 10362 10361 10357 10352 10351 10349 10349 10344 10341 10337 10333 10330 10325 10319 10312 10305 10298 10290 10282 10274 10267 10257 10247 10236 10224 10215 10203
10251 10258 10264 10270 10278 10284 10291 10297 10303 10307 10312 10317 10319 10322 10326 10329 10334 10338 10343 10347 10350 10351 10350 10349 10350 10347 10345 10342 10341 10338 10333 10329 10325 10322 10318 10314 10309 10305 10300 10295 10290 10285 10279 10271 10263 10255 10248 10240 10230 10218 10208 10194 10184 10173
10238 10243 10249 10256 10262 10267 10272 10278 10283 10288 10293 10297 10300 10303 10306 10309 10312 10314 10317 10319 10323 10325 10327 10328 10327 10325 10324 10321 10319 10316 10311 10307 10304 10299 10293 10288 10281 10274 10269 10265 10261 10255 10248 10240 10232 10224 10215 10207 10199 10188 10178 10167 10159 10147
10226 10231 10236 10241 10246 10251 10256 10260 10265 10269 10272 10276 10279 10283 10285 10287 10289 10290 10293 10296 10298 10300 10301 10301 10302 10302 10299 10297 10294 10293 10289 10284 10277 10272 10267 10260 10254 10248 10243 10240 10234 10227 10219 10213 10206 10198 10188 10178 10169 10161 10152 10141 10133 10122
10211 10216 10221 10225 10229 10234 10238 10242 10245 10250 10253 10256 10259 10262 10265 10267 10268 10270 10272 10274 10276 10277 10278 10278 10276 10273 10272 10270 10269 10267 10263 10258 10252 10246 10240 10235 10231 10225 10219 10213 10206 10200 10192 10184 10176 10167 10159 10152 10140 10131 10124 10116 10107 10098
10195 10199 10203 10208 10212 10215 10221 10223 10227 10230 10233 10236 10239 10242 10244 10246 10247 10249 10252 10254 10255 10256 10256 10255 10251 10247 10247 10246 10245 10241 10233 10227 10223 10220 10214 10208 10204 10198 10191 10186 10181 10174 10168 10160 10152 10143 10130 10122 10115 10106 10100 10091 10083 10074
10179 10182 10186 10190 10194 10198 10202 10206 10208 10212 10214 10217 10220 10221 10223 10225 10225 10228 10229 10230 10231 10232 10228 10224 10223 10224 10223 10221 10214 10209 10206 10203 10199 10195 10188 10183 10177 10171 10166 10161 10157 10150 10140 10132 10124 10116 10107 10098 10089 10083 10075 10067 10059 10052
10166 10168 10171 10175 10178 10183 10187 10188 10191 10194 10196 10198 10200 10201 10203 10203 10205 10205 10205 10203 10204 10200 10200 10199 10198 10199 10195 10190 10187 10184 10181 10177 10173 10169 10164 10161 10154 10148 10142 10135 10130 10124 10114 10105 10097 10090 10084 10076 10068 10061 10053 10046 10039 10033
10152 10154 10157 10163 10166 10169 10172 10173 10174 10175 10177 10177 10178 10179 10181 10182 10181 10181 10182 10180 10177 10177 10178 10175 10175 10174 10171 10167 10164 10161 10157 10152 10148 10146 10142 10135 10128 10122 10114 10107 10101 10095 10091 10085 10077 10070 10062 10055 10048 10040 10033 10026 10020 10013
10136 10138 10142 10146 10150 10151 10152 10152 10152 10154 10154 10157 10158 10159 10159 10159 10160 10162 10160 10155 10156 10157 10157 10154 10152 10152 10149 10145 10142 10137 10132 10128 10125 10122 10119 10113 10104 10097 10090 10083 10077 10073 10069 10063 10055 10048 10041 10035 10028 10022 10015 10009 10002 9995
10120 10124 10127 10128 10130 10133 10135 10135 10136 10136 10137 10138 10139 10140 10140 10140 10140 10139 10134 10136 10137 10136 10136 10134 10132 10130 10128 10123 10119 10114 10110 10106 10101 10098 10093 10086 10081 10076 10071 10064 10057 10048 10044 10042 10038 10031 10022 10015 10009 10003 9996 9990 9984 9976
10107 10108 10112 10114 10114 10115 10116 10118 10120 10121 10121 10122 10122 10123 10122 10123 10122 10120 10120 10119 10117 10116 10117 10116 10112 10109 10107 10103 10098 10093 10088 10083 10080 10076 10073 10067 10063 10059 10054 10047 10041 10034 10027 10021 10016 10012 10005 9997 9991 9986 9980 9973 9967 9958
10094 10095 10095 10096 10097 10100 10101 10104 10105 10105 10106 10106 10106 10106 10107 10106 10105 10103 10102 10101 10099 10097 10096 10095 10093 10090 10086 10082 10077 10073 10068 10064 10061 10060 10055 10049 10045 10039 10034 10029 10024 10018 10012 10005 9999 9992 9985 9978 9972 9966 9959 9953 9947 9940
10081 10083 10085 10086 10087 10089 10089 10090 10091 10092 10092 10091 10091 10091 10090 10090 10090 10089 10087 10086 10084 10081 10079 10077 10075 10072 10067 10063 10059 10056 10052 10048 10044 10038 10036 10033 10029 10026 10021 10013 10007 10002 9996 9990 9984 9980 9974 9967 9960 9954 9946 9938 9933 9927
10073 10075 10076 10077 10077 10078 10078 10078 10079 10079 10079 10078 10077 10077 10076 10076 10075 10073 10072 10071 10071 10068 10064 10060 10057 10054 10051 10049 10046 10042 10035 10031 10027 10022 10017 10012 10008 10004 9999 9994 9988 9984 9979 9973 9967 9959 9954 9950 9945 9940 9934 9927 9921 9914
10064 10065 10066 10067 10067 10067 10067 10067 10067 10066 10065 10064 10063 10063 10063 10062 10061 10059 10058 10057 10056 10052 10048 10045 10043 10040 10037 10033 10030 10027 10023 10018 10013 10008 10003 9998 9993 9988 9982 9977 9972 9967 9961 9956 9950 9944 9938 9932 9928 9923 9918 9914 9909 9903
10056 10056 10057 10057 10057 10057 10057 10056 10056 10056 10055 10053 10051 10050 10050 10049 10048 10047 10045 10043 10040 10036 10034 10032 10029 10026 10022 10019 10016 10011 10008 10004 9999 9995 9990 9985 9980 9975 9970 9964 9959 9954 9948 9942 9936 9931 9926 9920 9915 9910 9905 9900 9895 9890
10047 10048 10048 10048 10048 10048 10047 10046 10045 10044 10043 10041 10039 10038 10039 10038 10036 10034 10030 10028 10025 10023 10021 10018 10014 10011 10007 10004 10001 9997 9994 9989 9985 9981 9976 9971 9966 9961 9956 9951 9945 9940 9934 9929 9923 9918 9914 9908 9903 9898 9892 9888 9883 9878